OBJECT C, 56745

Orbit data source: Space-Track

You're viewing an Uncataloged Satellite

Recently launched and/or uncataloged satellites may have evolving metadata. Metadata may include but not limited to: Owner, Maufacturer, Bus, Motor, and Mission.

OBJECT C, 56745 is a satellite owned by KASI (KR) in SSO that was launched on Thu, 25 May 2023 UTC via an NURI launch vehicle from the Naro Space Center, South Korea (NSC). Unknown objects in Earth's orbit typically refer to objects detected orbiting the Earth but have not yet been identified or cataloged. These objects could be anything from previously untracked satellites, spent rocket stages, debris from satellite collisions, or even natural meteoroids temporarily captured by Earth's gravity.

Loading next visibility...
Identifier
56745, 2023-072C
Orbit
SSO
Last TLE update
6 hours ago
Origin
Manufacturer
KASI
Mission
Operational Civil Ast/Sci
Bus & Motor
CUBESAT 6U, Unknown motor
Mass
10 kg wet, 10 kg dry
Launch date (UTC)
2023-05-25 (2 years ago)
Launch vehicle
NURI
Launch site
Naro Space Center, South Korea (NSC)
Object type
Unknown
Shape & HBR
Box + 2 Pan, 0.7 m
Radar Cross Section
0.054 m², Medium (>0.1 m² and < 1m²)

Expand to show TLE details & history

TLE from 6 hours ago
0 OBJECT C
1 56745U 23072C   25127.55184520  .00017035  00000-0  62458-3 0  9992
2 56745  97.5575 321.5055 0006884  15.7953 344.3499 15.28035795107968
Epoch: 2025-05-07T13:14Z
Definitive object data (Epoch: 2025-05-07T13:14:39.425Z)
Latitude
-0.00006°
Longitude
-102.79382°
Altitude
480.233 km
Speed
7.628 km/s
True Right ascension
21h 26m 01s
True Declination
0° 00' 00"
Sunlit
Object was in daylight at TLE epoch
Visualization TLE readout
Latitude
-24.66238°
Longitude
73.96989°
Altitude
495.667 km
Speed
7.613 km/s
Apparent Right ascension
11h 38m 07s
Apparent Declination
-39° 59' 18"
Sunlit
Object is in daylight
Visualization observer readout
Local Sidereal Time
02:54:06
Azimuth
106.414° ESE
Elevation
-52.931°
Doppler factor
1
Orbital elements
Apogee altitude
483.367 km
Perigee altitude
473.926 km
Semi-major axis
6,856.783 km
Eccentricity
0.0006884
Inclination
97.5575°
RAAN
321.5055°
Arg. of periapsis
15.7953°
True anomaly
344.3286°
Mean anomaly
344.3499°
Eccentric anomaly
344.33925°
Mean motion
3.82263 °/min
BSTAR
0.00062458
Orbital period
94.18 mins
Loading maneuver chart data...
Loading SW <> Apogee altitude chart data...
Loading historical data...
Loading historical data...
Loading historical data...
Loading historical data...
Loading historical data...
Loading historical data...
Loading historical data...

OBJECT C Visibility forecast

Observer location: undefined°, undefined°

Span
Click to sort rows by Start time (UTC) header in descending order
Start Az.
Max El. time (UTC)
Max El. Az.
Max El.
End time (UTC)
End Az.
5 mins2025-05-08 02:23:07.351Z337.166° NNW2025-05-08 02:25:07.351Z287.472° WNW25.741°2025-05-08 02:28:07.351Z228.138° WSW
5 mins2025-05-08 12:58:07.351Z169.098° S2025-05-08 13:00:07.351Z341.846° N42.071°2025-05-08 13:03:07.351Z347.306° N
|